When you browse on this site, cookies collect data to enhance your experience and personalize the content and advertising you see.
Visit our Privacy Policy to learn more. By continuing to use the site, you agree to this use of cookies and data.
  • în România
  • Lista ţărilor
  • Pe 7 zile
  • Temperatura apei
  • Hartă satelitară
  • Meteo pe hartă
  • Widget-uri
  • user-avatar
    Intrare

    Meteo pe oră la Salta

    Astăzi, 17 Decembrie, Luni

    Timp Temperatura Precipitaţii Vânt Presiune Umiditate
    00:00 +23°C° 0.7 mm 1 m/s 650 mmHg 83%
    01:00 +23°C° 0.7 mm 1 m/s 650 mmHg 83%
    02:00 +23°C° 0.7 mm 1 m/s 650 mmHg 83%
    03:00 +22°C° 0.5 mm 1 m/s 650 mmHg 83%
    04:00 +22°C° 0.5 mm 1 m/s 649 mmHg 83%
    05:00 +22°C° 0.5 mm 1 m/s 649 mmHg 83%
    06:00 +23°C° 0.2 mm 1 m/s 650 mmHg 76%
    07:00 +25°C° 0.2 mm 1 m/s 651 mmHg 69%
    08:00 +26°C° 0.2 mm 1 m/s 652 mmHg 62%
    09:00 +28°C° 0.3 mm 2 m/s 652 mmHg 55%
    10:00 +30°C° 0.3 mm 2 m/s 652 mmHg 48%
    11:00 +32°C° 0.3 mm 2 m/s 653 mmHg 41%
    12:00 +31°C° 0.2 mm 2 m/s 652 mmHg 41%
    13:00 +31°C° 0.2 mm 2 m/s 652 mmHg 40%
    14:00 +31°C° 0.2 mm 2 m/s 652 mmHg 40%
    15:00 +30°C° 0.6 mm 2 m/s 651 mmHg 45%
    16:00 +29°C° 0.6 mm 2 m/s 651 mmHg 50%
    17:00 +28°C° 0.6 mm 2 m/s 650 mmHg 55%
    18:00 +26°C° 0.8 mm 2 m/s 650 mmHg 62%
    19:00 +25°C° 0.8 mm 1 m/s 650 mmHg 70%
    20:00 +23°C° 0.8 mm 1 m/s 650 mmHg 77%
    21:00 +23°C° 1 mm 1 m/s 651 mmHg 77%
    22:00 +23°C° 1 mm 1 m/s 651 mmHg 76%
    23:00 +23°C° 1 mm 1 m/s 651 mmHg 76%

    Mâine, 18 Decembrie, Marţi

    Timp Temperatura Precipitaţii Vânt Presiune Umiditate
    00:00 +23°C° 0.3 mm 1 m/s 651 mmHg 76%
    01:00 +22°C° 0.3 mm 1 m/s 651 mmHg 76%
    02:00 +22°C° 0.3 mm 1 m/s 650 mmHg 77%
    03:00 +22°C° 0.1 mm 1 m/s 650 mmHg 77%
    04:00 +22°C° 0.1 mm 1 m/s 650 mmHg 78%
    05:00 +21°C° 0.1 mm 1 m/s 650 mmHg 78%
    06:00 +22°C° 0.1 mm 1 m/s 651 mmHg 75%
    07:00 +23°C° 0.1 mm 1 m/s 652 mmHg 73%
    08:00 +24°C° 0.1 mm 1 m/s 653 mmHg 70%
    09:00 +25°C° 0.2 mm 2 m/s 653 mmHg 66%
    10:00 +26°C° 0.2 mm 2 m/s 653 mmHg 63%
    11:00 +27°C° 0.2 mm 3 m/s 653 mmHg 59%
    12:00 +27°C° 0.4 mm 3 m/s 652 mmHg 59%
    13:00 +28°C° 0.4 mm 3 m/s 652 mmHg 59%
    14:00 +28°C° 0.4 mm 4 m/s 651 mmHg 59%
    15:00 +27°C° 1 mm 3 m/s 651 mmHg 64%
    16:00 +26°C° 1 mm 3 m/s 651 mmHg 68%
    17:00 +25°C° 1 mm 3 m/s 650 mmHg 73%
    18:00 +22°C° 1.3 mm 3 m/s 650 mmHg 77%
    19:00 +21°C° 1.3 mm 2 m/s 651 mmHg 82%
    20:00 +21°C° 1.3 mm 1 m/s 651 mmHg 86%
    21:00 +21°C° 0.8 mm 1 m/s 652 mmHg 85%
    22:00 +21°C° 0.8 mm 1 m/s 652 mmHg 84%
    23:00 +21°C° 0.8 mm 1 m/s 652 mmHg 83%

    Poimâine, 19 Decembrie, Miercuri

    Timp Temperatura Precipitaţii Vânt Presiune Umiditate
    00:00 +21°C° 0.2 mm 1 m/s 652 mmHg 83%
    01:00 +21°C° 0.2 mm 1 m/s 651 mmHg 84%
    02:00 +19°C° 0.2 mm 0 m/s 651 mmHg 84%
    03:00 +20°C° 0.1 mm 1 m/s 650 mmHg 85%
    04:00 +20°C° 0.1 mm 1 m/s 650 mmHg 86%
    05:00 +20°C° 0.1 mm 1 m/s 650 mmHg 88%
    06:00 +21°C° 0 mm 1 m/s 650 mmHg 84%
    07:00 +22°C° 0 mm 1 m/s 650 mmHg 80%
    08:00 +22°C° 0 mm 1 m/s 651 mmHg 76%
    09:00 +24°C° 0 mm 1 m/s 651 mmHg 68%
    10:00 +26°C° 0 mm 2 m/s 651 mmHg 60%
    11:00 +28°C° 0 mm 2 m/s 651 mmHg 53%
    12:00 +28°C° 0 mm 3 m/s 650 mmHg 52%
    13:00 +29°C° 0 mm 3 m/s 650 mmHg 51%
    14:00 +30°C° 0 mm 3 m/s 649 mmHg 50%
    15:00 +29°C° 0 mm 3 m/s 648 mmHg 54%
    16:00 +28°C° 0 mm 3 m/s 648 mmHg 58%
    17:00 +28°C° 0 mm 3 m/s 647 mmHg 61%
    18:00 +26°C° 0.1 mm 3 m/s 647 mmHg 68%
    19:00 +25°C° 0.1 mm 2 m/s 647 mmHg 75%
    20:00 +23°C° 0.1 mm 1 m/s 647 mmHg 81%
    21:00 +23°C° 0.2 mm 1 m/s 648 mmHg 83%
    22:00 +22°C° 0.2 mm 1 m/s 648 mmHg 84%
    23:00 +22°C° 0.2 mm 1 m/s 648 mmHg 86%

    20 Decembrie, Joi

    Timp Temperatura Precipitaţii Vânt Presiune Umiditate
    00:00 +22°C° 0 mm 1 m/s 648 mmHg 85%
    01:00 +21°C° 0 mm 1 m/s 647 mmHg 85%
    02:00 +21°C° 0 mm 1 m/s 647 mmHg 84%
    03:00 +21°C° 0 mm 1 m/s 647 mmHg 83%
    04:00 +21°C° 0 mm 1 m/s 647 mmHg 83%
    05:00 +21°C° 0 mm 1 m/s 647 mmHg 82%
    06:00 +22°C° 0 mm 1 m/s 648 mmHg 75%
    07:00 +24°C° 0 mm 1 m/s 649 mmHg 68%
    08:00 +25°C° 0 mm 2 m/s 650 mmHg 61%
    09:00 +27°C° 0.1 mm 2 m/s 650 mmHg 57%
    10:00 +28°C° 0.1 mm 2 m/s 650 mmHg 53%
    11:00 +30°C° 0.1 mm 3 m/s 650 mmHg 49%
    12:00 +30°C° 0.6 mm 3 m/s 650 mmHg 49%
    13:00 +30°C° 0.6 mm 3 m/s 649 mmHg 49%
    14:00 +30°C° 0.6 mm 4 m/s 648 mmHg 49%
    15:00 +29°C° 0.7 mm 4 m/s 648 mmHg 53%
    16:00 +28°C° 0.7 mm 4 m/s 648 mmHg 58%
    17:00 +28°C° 0.7 mm 4 m/s 647 mmHg 62%
    18:00 +26°C° 0.6 mm 3 m/s 648 mmHg 69%
    19:00 +24°C° 0.6 mm 2 m/s 648 mmHg 76%
    20:00 +23°C° 0.6 mm 1 m/s 648 mmHg 83%
    21:00 +22°C° 0 mm 1 m/s 649 mmHg 82%
    22:00 +22°C° 0 mm 1 m/s 649 mmHg 82%
    23:00 +21°C° 0 mm 1 m/s 650 mmHg 82%

    21 Decembrie, Vineri

    Timp Temperatura Precipitaţii Vânt Presiune Umiditate
    00:00 +21°C° 0 mm 1 m/s 650 mmHg 80%
    01:00 +21°C° 0 mm 1 m/s 649 mmHg 78%
    02:00 +21°C° 0 mm 1 m/s 649 mmHg 77%
    03:00 +21°C° 0 mm 1 m/s 649 mmHg 76%
    04:00 +20°C° 0 mm 1 m/s 649 mmHg 75%
    05:00 +20°C° 0 mm 1 m/s 650 mmHg 74%
    06:00 +22°C° 0 mm 1 m/s 650 mmHg 70%
    07:00 +23°C° 0 mm 2 m/s 651 mmHg 66%
    08:00 +24°C° 0 mm 2 m/s 652 mmHg 62%
    09:00 +25°C° 0.2 mm 2 m/s 652 mmHg 60%
    10:00 +26°C° 0.2 mm 2 m/s 652 mmHg 57%
    11:00 +27°C° 0.2 mm 3 m/s 652 mmHg 55%
    12:00 +27°C° 0.2 mm 3 m/s 651 mmHg 55%
    13:00 +28°C° 0.2 mm 3 m/s 650 mmHg 55%
    14:00 +28°C° 0.2 mm 4 m/s 650 mmHg 55%
    15:00 +27°C° 0.5 mm 3 m/s 649 mmHg 58%
    16:00 +27°C° 0.5 mm 3 m/s 649 mmHg 61%
    17:00 +26°C° 0.5 mm 3 m/s 648 mmHg 65%
    18:00 +25°C° 0.5 mm 2 m/s 649 mmHg 72%
    19:00 +23°C° 0.5 mm 2 m/s 649 mmHg 78%
    20:00 +22°C° 0.5 mm 1 m/s 649 mmHg 85%
    21:00 +22°C° 0.1 mm 1 m/s 650 mmHg 85%
    22:00 +21°C° 0.1 mm 1 m/s 650 mmHg 85%
    23:00 +19°C° 0.1 mm 0 m/s 650 mmHg 84%

    22 Decembrie, Sâmbătă

    Timp Temperatura Precipitaţii Vânt Presiune Umiditate
    00:00 +21°C° 0 mm 1 m/s 650 mmHg 84%
    01:00 +21°C° 0 mm 1 m/s 650 mmHg 84%
    02:00 +20°C° 0 mm 1 m/s 649 mmHg 84%
    03:00 +20°C° 0 mm 1 m/s 649 mmHg 84%
    04:00 +20°C° 0 mm 1 m/s 650 mmHg 84%
    05:00 +20°C° 0 mm 1 m/s 650 mmHg 84%
    06:00 +21°C° 0 mm 1 m/s 651 mmHg 79%
    07:00 +23°C° 0 mm 1 m/s 651 mmHg 75%
    08:00 +24°C° 0 mm 1 m/s 652 mmHg 70%
    09:00 +26°C° 0 mm 1 m/s 652 mmHg 65%
    10:00 +27°C° 0 mm 2 m/s 652 mmHg 61%
    11:00 +29°C° 0 mm 2 m/s 652 mmHg 56%
    12:00 +29°C° 0.2 mm 2 m/s 652 mmHg 56%
    13:00 +29°C° 0.2 mm 3 m/s 651 mmHg 55%
    14:00 +29°C° 0.2 mm 3 m/s 651 mmHg 54%
    15:00 +29°C° 0.6 mm 3 m/s 650 mmHg 57%
    16:00 +28°C° 0.6 mm 3 m/s 650 mmHg 60%
    17:00 +27°C° 0.6 mm 3 m/s 649 mmHg 63%
    18:00 +26°C° 0.6 mm 2 m/s 650 mmHg 71%
    19:00 +24°C° 0.6 mm 2 m/s 650 mmHg 78%
    20:00 +23°C° 0.6 mm 1 m/s 650 mmHg 85%
    21:00 +22°C° 0.3 mm 1 m/s 650 mmHg 85%
    22:00 +22°C° 0.3 mm 1 m/s 651 mmHg 85%
    23:00 +22°C° 0.3 mm 1 m/s 651 mmHg 85%
    Arată mai mult